User: anonymous   Login
Location: Arbon
(43.0005°N, 0.7472°E)
Time: 18:10:32
(UTC+00:00)
Language:

Cosmos 1025 Rocket - Orbit

View from above orbital plane
View from above orbital plane
View from above satellite
View from above satellite

Ground track
Ground track

The orbit data is extracted from the following two-line orbital elements,

1 10974U 78067B   20298.14830593  .00000104  00000-0  87813-5 0  9990
2 10974  82.4802  88.9540 0016042 241.4124 118.5479 14.87364880289634
Epoch (UTC): 24 October 2020 03:33:33
Eccentricity: 0.0016042
inclination: 82.4802°
perigee height: 595 km
apogee height: 617 km
right ascension of ascending node: 88.9540°
argument of perigee: 241.4124°
revolutions per day: 14.87364880
mean anomaly at epoch: 118.5479°
orbit number at epoch: 28963

The dashed part of the orbit path shows where the satellite is in the earth's shadow,  

DLR